SES-18

Last updated on Sun Oct 06 2024 00:02:42 GMT+0000 (Coordinated Universal Time)

1 55970U 23038A 24279.52038938 -.00000091 00000+0 00000+0 0 9993 2 55970 0.0270 255.9657 0002594 337.1874 225.7874 1.00272041 5905
UTC large
Height (km)
Speed (km/s)
/
Latitude / Longitude
Inclination (degrees)
Orbital Period (minutes)
Azimuth
Elevation
Range (km)
Doppler Factor

Next 0 passes for location: London (51.5072 / 0.1276)

Sorry there are no passes over London.